Ellensburg, WA

3:55 PM PST on February 17, 2018 (GMT -0800)
Bowers

Weather History for KELN - October, 2012

Change the Weather History Date:

Sunday, October 14, 2012

  Actual Average (KYKM) Record (KYKM)
Temperature  
Mean Temperature 56 °F -  
Max Temperature 62 °F 64 °F 78 °F (2004)
Min Temperature 50 °F 33 °F 22 °F (1969)
Degree Days  
Heating Degree Days 10    
Growing Degree Days 6 (Base 50)    
Moisture  
Dew Point 48 °F    
Average Humidity 83    
Maximum Humidity 89    
Minimum Humidity 70    
Precipitation  
Precipitation 0.01 in - - ()
Sea Level Pressure  
Sea Level Pressure 30.04 in    
Wind  
Wind Speed 2 mph (NE)    
Max Wind Speed 8 mph    
Max Gust Speed -    
Visibility 3 miles    
Events Fog    
Averages and records for this station are not official NWS values.
T = Trace of Precipitation, MM = Missing Value Source: NWS Daily Summary

Daily Weather History Graph

Daily Weather History Graph

Search for Another Location

Airport or City:

Trip Planner

Search our weather history database for the weather conditions in past years. The results will help you decide how hot, cold, wet, or windy it might be!

Date:

Astronomy

Oct. 14, 2012 Rise Set
Actual Time 7:19 AM PDT 6:15 PM PDT
Civil Twilight 6:48 AM PDT 6:46 PM PDT
Nautical Twilight 6:13 AM PDT 7:21 PM PDT
Astronomical Twilight 5:38 AM PDT 7:56 PM PDT
Moon 6:24 AM PDT (10/14) 5:37 PM PDT (10/14)
Length of Visible Light 11h 57m
Length of Day
10h 55m
Waning Crescent, 1% of the Moon is Illuminated
Oct 14
Waning Crescent
Oct 15
New
Oct 21
First Quarter
Oct 29
Full
Nov 6
Last Quarter

Hourly Weather History & Observations

Time (PDT) Temp. Dew Point Humidity Pressure Visibility Wind Dir Wind Speed Gust Speed Precip Events Conditions
12:01 AM 53.6 °F 48.2 °F 82% 30.12 in 1.2 mi Calm Calm - N/A   Mostly Cloudy
12:04 AM 53.6 °F 48.2 °F 82% 30.12 in 3.0 mi Calm Calm - N/A   Scattered Clouds
12:13 AM 53.6 °F 48.2 °F 82% 30.11 in 1.8 mi Calm Calm - N/A   Haze
12:18 AM 53.6 °F 48.2 °F 82% 30.11 in 0.8 mi Calm Calm - N/A   Scattered Clouds
12:28 AM 51.8 °F 48.2 °F 88% 30.11 in 0.8 mi Calm Calm - N/A   Mist
12:53 AM 52.0 °F 48.0 °F 86% 30.11 in 0.5 mi SSE 5.8 mph - 0.01 in Fog Fog
1:53 AM 51.1 °F 46.9 °F 86% 30.12 in 0.2 mi East 4.6 mph - N/A Fog Fog
2:17 AM 51.8 °F 48.2 °F 88% 30.11 in 1.5 mi East 4.6 mph - N/A   Mostly Cloudy
2:20 AM 51.8 °F 48.2 °F 88% 30.12 in 3.0 mi East 3.5 mph - N/A   Mostly Cloudy
2:32 AM 51.8 °F 48.2 °F 88% 30.11 in 3.0 mi ENE 4.6 mph - N/A   Partly Cloudy
2:45 AM 51.8 °F 46.4 °F 82% 30.10 in 1.8 mi East 4.6 mph - N/A   Mostly Cloudy
2:53 AM 52.0 °F 48.0 °F 86% 30.10 in 0.8 mi ENE 3.5 mph - N/A   Mist
3:25 AM 51.8 °F 46.4 °F 82% 30.09 in 1.2 mi NE 4.6 mph - N/A   Haze
3:29 AM 51.8 °F 46.4 °F 82% 30.09 in 3.0 mi NE 3.5 mph - N/A   Haze
3:36 AM 51.8 °F 46.4 °F 82% 30.09 in 2.5 mi Calm Calm - N/A   Scattered Clouds
3:52 AM 51.1 °F 46.9 °F 86% 30.09 in 1.8 mi Calm Calm - N/A   Mist
4:18 AM 50.0 °F 46.4 °F 87% 30.08 in 1.2 mi Calm Calm - N/A   Partly Cloudy
4:25 AM 50.0 °F 46.4 °F 87% 30.08 in 0.8 mi Calm Calm - N/A   Mostly Cloudy
4:53 AM 50.0 °F 46.0 °F 86% 30.08 in 0.5 mi Calm Calm - N/A Fog Fog
5:14 AM 51.8 °F 46.4 °F 82% 30.07 in 1.2 mi Calm Calm - N/A   Haze
5:27 AM 51.8 °F 46.4 °F 82% 30.07 in 2.0 mi NNE 3.5 mph - N/A   Haze
5:38 AM 51.8 °F 46.4 °F 82% 30.07 in 1.0 mi NE 3.5 mph - N/A   Mist
5:46 AM 51.8 °F 46.4 °F 82% 30.07 in 0.5 mi Calm Calm - N/A Fog Fog
5:53 AM 51.1 °F 46.9 °F 86% 30.06 in 0.5 mi East 3.5 mph - N/A Fog Fog
5:58 AM 51.8 °F 46.4 °F 82% 30.06 in 1.5 mi Calm Calm - N/A   Mostly Cloudy
6:21 AM 51.8 °F 46.4 °F 82% 30.07 in 1.8 mi NNW 5.8 mph - N/A   Partly Cloudy
6:28 AM 51.8 °F 46.4 °F 82% 30.07 in 1.0 mi North 3.5 mph - N/A   Mist
6:35 AM 51.8 °F 48.2 °F 88% 30.06 in 0.5 mi Calm Calm - N/A Fog Fog
6:53 AM 51.1 °F 46.9 °F 86% 30.06 in 0.2 mi Calm Calm - N/A Fog Fog
7:53 AM 51.1 °F 46.9 °F 86% 30.05 in 0.2 mi Calm Calm - N/A Fog Fog
8:53 AM 52.0 °F 48.0 °F 86% 30.05 in 0.2 mi Calm Calm - N/A Fog Fog
9:27 AM 53.6 °F 48.2 °F 82% 30.03 in 1.0 mi Calm Calm - N/A   Clear
9:32 AM 53.6 °F 48.2 °F 82% 30.03 in 1.2 mi Calm Calm - N/A   Partly Cloudy
9:35 AM 53.6 °F 48.2 °F 82% 30.03 in 0.8 mi Calm Calm - N/A   Haze
9:53 AM 52.0 °F 48.9 °F 89% 30.03 in 0.2 mi Calm Calm - N/A Fog Fog
10:53 AM 53.1 °F 48.9 °F 86% 30.02 in 0.2 mi Calm Calm - N/A Fog Fog
11:29 AM 53.6 °F 50.0 °F 88% 30.00 in 1.2 mi NNE 3.5 mph - N/A   Overcast
11:45 AM 55.4 °F 50.0 °F 82% 30.00 in 3.0 mi Calm Calm - N/A   Haze
11:53 AM 55.9 °F 51.1 °F 84% 30.01 in 8.0 mi Calm Calm - N/A   Scattered Clouds
12:04 PM 57.2 °F 50.0 °F 77% 30.00 in 2.5 mi NW 4.6 mph - N/A   Haze
12:11 PM 57.2 °F 51.8 °F 82% 30.01 in 10.0 mi NW 8.1 mph - N/A   Partly Cloudy
1:53 PM 59.0 °F 51.1 °F 75% 29.98 in 10.0 mi Calm Calm - N/A   Clear
2:53 PM 59.0 °F 51.1 °F 75% 29.96 in 10.0 mi Calm Calm - N/A   Mostly Cloudy
3:53 PM 60.1 °F 51.1 °F 72% 29.95 in 10.0 mi South 3.5 mph - N/A   Mostly Cloudy
4:53 PM 61.0 °F 51.1 °F 70% 29.94 in 10.0 mi SW 4.6 mph - N/A   Mostly Cloudy
5:53 PM 59.0 °F 50.0 °F 72% 29.92 in 10.0 mi East 5.8 mph - N/A   Overcast
6:53 PM 57.0 °F 50.0 °F 77% 29.93 in 10.0 mi Calm Calm - 0.00 in   Mostly Cloudy
7:53 PM 57.9 °F 50.0 °F 75% 29.91 in 10.0 mi Calm Calm - 0.00 in   Mostly Cloudy
8:53 PM 55.0 °F 48.9 °F 80% 29.90 in 10.0 mi SW 3.5 mph - N/A   Scattered Clouds
9:53 PM 55.0 °F 48.9 °F 80% 29.89 in 10.0 mi Calm Calm - N/A   Mostly Cloudy
10:53 PM 55.0 °F 48.9 °F 80% 29.89 in 10.0 mi Calm Calm - N/A   Clear
11:53 PM 53.1 °F 48.0 °F 83% 29.87 in 10.0 mi NW 3.5 mph - 0.00 in   Overcast